WIZ985 EGKK-EGCC

Flight info

Callsign WIZ985
Flight time 0h 36m
Altitude 22000
Route LAM1Z LAM N57 WELIN DCT TIMPO DCT ELVOS DCT TNT DCT
Aircraft A321/H-SDE1FGHILORVWXY/L

Departure

Time 2026-05-06 21:01
Airport London Gatwick Airport (EGKK)

Arrival

Time 2026-05-06 21:37
Airport Manchester Airport (EGCC)
Time Latitude Longitude Altitude Speed Heading
2026-05-06 20:21 51.15203 -0.18843 212 ft 0 kts 257°
2026-05-06 20:45 51.15205 -0.18834 204 ft 4 kts 257°
2026-05-06 20:46 51.15210 -0.18792 207 ft 4 kts 257°
2026-05-06 20:46 51.15215 -0.18759 210 ft 4 kts 255°
2026-05-06 20:46 51.15226 -0.18725 216 ft 4 kts 207°
2026-05-06 20:46 51.15248 -0.18722 216 ft 4 kts 167°
2026-05-06 20:47 51.15264 -0.18727 210 ft 0 kts 167°
2026-05-06 20:49 51.15256 -0.18725 216 ft 2 kts 167°
2026-05-06 20:49 51.15238 -0.18718 214 ft 3 kts 166°
2026-05-06 20:49 51.15212 -0.18709 211 ft 4 kts 168°
2026-05-06 20:49 51.15176 -0.18698 204 ft 6 kts 173°
2026-05-06 20:50 51.15138 -0.18729 210 ft 7 kts 233°
2026-05-06 20:50 51.15119 -0.18810 207 ft 9 kts 256°
2026-05-06 20:50 51.15106 -0.18907 206 ft 9 kts 258°
2026-05-06 20:50 51.15091 -0.19010 207 ft 10 kts 257°
2026-05-06 20:51 51.15076 -0.19123 208 ft 11 kts 258°
2026-05-06 20:51 51.15059 -0.19244 204 ft 12 kts 257°
2026-05-06 20:51 51.15041 -0.19378 215 ft 13 kts 257°
2026-05-06 20:51 51.15021 -0.19520 204 ft 14 kts 257°
2026-05-06 20:52 51.15000 -0.19675 213 ft 15 kts 258°
2026-05-06 20:52 51.14977 -0.19840 207 ft 16 kts 257°
2026-05-06 20:52 51.14952 -0.20020 208 ft 17 kts 258°
2026-05-06 20:52 51.14926 -0.20212 209 ft 18 kts 259°
2026-05-06 20:53 51.14898 -0.20414 214 ft 19 kts 257°
2026-05-06 20:53 51.14869 -0.20626 207 ft 20 kts 258°
2026-05-06 20:53 51.14839 -0.20844 212 ft 20 kts 259°
2026-05-06 20:53 51.14810 -0.21060 209 ft 20 kts 258°
2026-05-06 20:54 51.14771 -0.21270 204 ft 18 kts 255°
2026-05-06 20:54 51.14720 -0.21396 207 ft 11 kts 185°
2026-05-06 20:54 51.14652 -0.21345 206 ft 7 kts 152°
2026-05-06 20:54 51.14619 -0.21328 207 ft 1 kts 166°
2026-05-06 20:55 51.14616 -0.21327 206 ft 0 kts 167°
2026-05-06 20:57 51.14612 -0.21325 205 ft 0 kts 166°
2026-05-06 20:59 51.14606 -0.21323 207 ft 4 kts 166°
2026-05-06 21:00 51.14574 -0.21306 203 ft 6 kts 158°
2026-05-06 21:00 51.14535 -0.21257 207 ft 9 kts 134°
2026-05-06 21:00 51.14521 -0.21189 205 ft 0 kts 83°
2026-05-06 21:00 51.14527 -0.21132 212 ft 22 kts 79°
2026-05-06 21:01 51.14607 -0.20536 208 ft 89 kts 79°
2026-05-06 21:01 51.14780 -0.19267 205 ft 146 kts 78°
2026-05-06 21:01 51.15003 -0.17509 466 ft 169 kts 79°
2026-05-06 21:01 51.15217 -0.15624 1028 ft 177 kts 78°
2026-05-06 21:02 51.15442 -0.13664 1675 ft 182 kts 76°
2026-05-06 21:02 51.15679 -0.11704 2382 ft 178 kts 76°
2026-05-06 21:02 51.15958 -0.09738 2790 ft 188 kts 73°
2026-05-06 21:02 51.16286 -0.07642 3105 ft 201 kts 73°
2026-05-06 21:03 51.16975 -0.05707 3510 ft 205 kts 45°
2026-05-06 21:03 51.17981 -0.04058 3854 ft 214 kts 47°
2026-05-06 21:03 51.18844 -0.02110 4129 ft 224 kts 66°
2026-05-06 21:03 51.19157 0.00445 4265 ft 249 kts 83°
2026-05-06 21:04 51.19297 0.03308 4716 ft 265 kts 85°
2026-05-06 21:04 51.19419 0.06271 5445 ft 270 kts 86°
2026-05-06 21:04 51.19540 0.09273 6235 ft 273 kts 86°
2026-05-06 21:04 51.19662 0.12323 6807 ft 278 kts 86°
2026-05-06 21:05 51.19784 0.15394 6954 ft 278 kts 86°
2026-05-06 21:05 51.19903 0.18397 6997 ft 278 kts 86°
2026-05-06 21:05 51.20025 0.21475 6999 ft 278 kts 86°
2026-05-06 21:05 51.20147 0.24548 7001 ft 277 kts 86°
2026-05-06 21:06 51.20267 0.27616 7006 ft 277 kts 86°
2026-05-06 21:06 51.20432 0.30674 6998 ft 277 kts 77°
2026-05-06 21:06 51.21226 0.33436 7002 ft 275 kts 50°
2026-05-06 21:06 51.22717 0.35278 7002 ft 273 kts 21°
2026-05-06 21:07 51.24537 0.35796 7004 ft 271 kts 354°
2026-05-06 21:07 51.26375 0.35135 7052 ft 273 kts 341°
2026-05-06 21:07 51.28194 0.34198 7794 ft 275 kts 341°
2026-05-06 21:07 51.30013 0.33232 8589 ft 277 kts 341°
2026-05-06 21:08 51.31845 0.32254 9355 ft 280 kts 340°
2026-05-06 21:08 51.33703 0.31258 10110 ft 283 kts 341°
2026-05-06 21:08 51.35629 0.30184 10345 ft 304 kts 335°
2026-05-06 21:08 51.37462 0.28287 10469 ft 326 kts 322°
2026-05-06 21:09 51.39298 0.25974 10603 ft 347 kts 321°
2026-05-06 21:09 51.41214 0.23533 10907 ft 353 kts 321°
2026-05-06 21:09 51.43115 0.21099 11302 ft 356 kts 321°
2026-05-06 21:09 51.45077 0.18592 11704 ft 358 kts 321°
2026-05-06 21:10 51.47012 0.16122 12113 ft 360 kts 321°
2026-05-06 21:10 51.48980 0.13612 12527 ft 362 kts 321°
2026-05-06 21:10 51.50956 0.11092 12950 ft 364 kts 321°
2026-05-06 21:10 51.52948 0.08546 13384 ft 366 kts 321°
2026-05-06 21:11 51.54952 0.06004 13816 ft 369 kts 322°
2026-05-06 21:11 51.57023 0.03572 14212 ft 371 kts 324°
2026-05-06 21:11 51.59158 0.01217 14632 ft 372 kts 325°
2026-05-06 21:11 51.61318 -0.01102 15027 ft 375 kts 326°
2026-05-06 21:12 51.63495 -0.03432 15440 ft 377 kts 326°
2026-05-06 21:12 51.65615 -0.05722 15858 ft 380 kts 325°
2026-05-06 21:12 51.67808 -0.08121 16291 ft 382 kts 325°
2026-05-06 21:12 51.69996 -0.10538 16746 ft 385 kts 324°
2026-05-06 21:13 51.72217 -0.13013 17283 ft 388 kts 324°
2026-05-06 21:13 51.74447 -0.15508 17842 ft 392 kts 324°
2026-05-06 21:13 51.76693 -0.18024 18403 ft 395 kts 324°
2026-05-06 21:13 51.78587 -0.20143 18823 ft 398 kts 324°
2026-05-06 21:14 51.80829 -0.22653 19326 ft 400 kts 324°
2026-05-06 21:14 51.83092 -0.25187 19850 ft 402 kts 324°
2026-05-06 21:14 51.85395 -0.27768 20387 ft 404 kts 324°
2026-05-06 21:14 51.87709 -0.30364 20923 ft 405 kts 324°
2026-05-06 21:15 51.90026 -0.32961 21507 ft 406 kts 324°
2026-05-06 21:15 51.92350 -0.35570 21955 ft 410 kts 324°
2026-05-06 21:15 51.94711 -0.38231 22048 ft 419 kts 324°
2026-05-06 21:15 51.97038 -0.40871 22058 ft 428 kts 324°
2026-05-06 21:16 51.98914 -0.43096 22062 ft 425 kts 324°
2026-05-06 21:16 52.01697 -0.45124 22045 ft 430 kts 342°
2026-05-06 21:16 52.04475 -0.46939 22025 ft 432 kts 329°
2026-05-06 21:16 52.06924 -0.49749 22035 ft 433 kts 319°
2026-05-06 21:17 52.09191 -0.53069 22033 ft 445 kts 316°
2026-05-06 21:17 52.11455 -0.56538 22032 ft 450 kts 316°
2026-05-06 21:17 52.13809 -0.59906 22035 ft 451 kts 319°
2026-05-06 21:17 52.16277 -0.63075 22036 ft 452 kts 322°
2026-05-06 21:18 52.18796 -0.66018 22036 ft 452 kts 324°
2026-05-06 21:18 52.21400 -0.68886 22034 ft 452 kts 325°
2026-05-06 21:18 52.24028 -0.71727 22035 ft 452 kts 325°
2026-05-06 21:18 52.26643 -0.74578 22035 ft 452 kts 325°
2026-05-06 21:19 52.29241 -0.77472 22046 ft 452 kts 324°
2026-05-06 21:19 52.31819 -0.80406 22031 ft 451 kts 324°
2026-05-06 21:19 52.34373 -0.83365 22026 ft 450 kts 323°
2026-05-06 21:19 52.36932 -0.86353 22013 ft 453 kts 323°
2026-05-06 21:20 52.39492 -0.89347 22016 ft 452 kts 323°
2026-05-06 21:20 52.42021 -0.92299 22010 ft 452 kts 323°
2026-05-06 21:20 52.44570 -0.95318 22019 ft 452 kts 319°
2026-05-06 21:20 52.46761 -0.98965 22020 ft 449 kts 308°
2026-05-06 21:21 52.48752 -1.02909 22025 ft 449 kts 308°
2026-05-06 21:21 52.50737 -1.06870 22023 ft 449 kts 308°
2026-05-06 21:21 52.52710 -1.10834 22039 ft 446 kts 308°
2026-05-06 21:21 52.54642 -1.14728 21719 ft 434 kts 308°
2026-05-06 21:22 52.56514 -1.18510 21458 ft 432 kts 308°
2026-05-06 21:22 52.58334 -1.22189 21201 ft 431 kts 308°
2026-05-06 21:22 52.60222 -1.26009 20636 ft 428 kts 308°
2026-05-06 21:22 52.62091 -1.29791 20010 ft 424 kts 308°
2026-05-06 21:23 52.63941 -1.33538 19399 ft 420 kts 308°
2026-05-06 21:23 52.65769 -1.37244 18799 ft 416 kts 308°
2026-05-06 21:23 52.67584 -1.40932 18197 ft 412 kts 308°
2026-05-06 21:23 52.69369 -1.44566 17609 ft 408 kts 308°
2026-05-06 21:24 52.71158 -1.48221 17058 ft 406 kts 308°
2026-05-06 21:24 52.72921 -1.51827 16536 ft 403 kts 308°
2026-05-06 21:24 52.74655 -1.55376 16084 ft 403 kts 308°
2026-05-06 21:24 52.76404 -1.58959 15501 ft 398 kts 308°
2026-05-06 21:25 52.78130 -1.62500 14963 ft 394 kts 308°
2026-05-06 21:25 52.79835 -1.66009 14429 ft 390 kts 308°
2026-05-06 21:25 52.81511 -1.69457 14191 ft 373 kts 308°
2026-05-06 21:25 52.83075 -1.72677 13516 ft 350 kts 308°
2026-05-06 21:26 52.84602 -1.75823 12507 ft 352 kts 308°
2026-05-06 21:26 52.86095 -1.78906 12253 ft 332 kts 308°
2026-05-06 21:26 52.87500 -1.81810 11814 ft 321 kts 308°
2026-05-06 21:26 52.88885 -1.84674 11297 ft 317 kts 309°
2026-05-06 21:27 52.90254 -1.87507 11067 ft 312 kts 309°
2026-05-06 21:27 52.91620 -1.90339 10989 ft 316 kts 309°
2026-05-06 21:27 52.92987 -1.93176 10867 ft 316 kts 309°
2026-05-06 21:27 52.94355 -1.96018 10730 ft 315 kts 309°
2026-05-06 21:28 52.95701 -1.98819 10557 ft 302 kts 309°
2026-05-06 21:28 52.96972 -2.01470 10066 ft 287 kts 309°
2026-05-06 21:28 52.98185 -2.04004 9906 ft 286 kts 309°
2026-05-06 21:28 52.99434 -2.06613 9780 ft 286 kts 309°
2026-05-06 21:29 53.00639 -2.09133 9633 ft 277 kts 309°
2026-05-06 21:29 53.01840 -2.11646 9509 ft 278 kts 309°
2026-05-06 21:29 53.03041 -2.14164 9144 ft 278 kts 309°
2026-05-06 21:29 53.04238 -2.16677 8773 ft 276 kts 309°
2026-05-06 21:30 53.05429 -2.19174 8249 ft 273 kts 309°
2026-05-06 21:30 53.06596 -2.21618 7794 ft 269 kts 309°
2026-05-06 21:30 53.07753 -2.24044 7361 ft 267 kts 309°
2026-05-06 21:30 53.08896 -2.26446 6925 ft 263 kts 309°
2026-05-06 21:31 53.10015 -2.28797 6503 ft 262 kts 309°
2026-05-06 21:31 53.11137 -2.31161 6050 ft 260 kts 309°
2026-05-06 21:31 53.12262 -2.33539 5703 ft 259 kts 309°
2026-05-06 21:31 53.13354 -2.35851 5569 ft 248 kts 309°
2026-05-06 21:32 53.14378 -2.38025 5350 ft 230 kts 310°
2026-05-06 21:32 53.16303 -2.42117 4147 ft 228 kts 308°
2026-05-06 21:32 53.17267 -2.44207 3892 ft 224 kts 309°
2026-05-06 21:33 53.18211 -2.46205 3700 ft 216 kts 310°
2026-05-06 21:33 53.19126 -2.48131 3396 ft 214 kts 309°
2026-05-06 21:33 53.20049 -2.50065 3007 ft 213 kts 310°
2026-05-06 21:33 53.21267 -2.51537 2680 ft 222 kts 346°
2026-05-06 21:34 53.22760 -2.51547 2604 ft 215 kts 24°
2026-05-06 21:34 53.23974 -2.50147 2776 ft 215 kts 52°
2026-05-06 21:34 53.24891 -2.48232 2755 ft 208 kts 52°
2026-05-06 21:34 53.25768 -2.46377 2570 ft 201 kts 54°
2026-05-06 21:35 53.26649 -2.44552 2321 ft 210 kts 52°
2026-05-06 21:35 53.27579 -2.42637 2058 ft 207 kts 54°
2026-05-06 21:35 53.28454 -2.40843 1767 ft 194 kts 54°
2026-05-06 21:35 53.29263 -2.39181 1493 ft 176 kts 54°
2026-05-06 21:36 53.30004 -2.37656 1275 ft 167 kts 54°
2026-05-06 21:36 53.30732 -2.36157 1023 ft 166 kts 53°
2026-05-06 21:36 53.31467 -2.34637 777 ft 170 kts 52°
2026-05-06 21:36 53.32212 -2.33091 631 ft 172 kts 51°
2026-05-06 21:37 53.32967 -2.31544 376 ft 172 kts 50°
2026-05-06 21:37 53.33712 -2.30005 256 ft 169 kts 51°
2026-05-06 21:37 53.34372 -2.28621 225 ft 128 kts 50°
2026-05-06 21:37 53.34680 -2.28006 227 ft 40 kts 48°
2026-05-06 21:38 53.34804 -2.27830 223 ft 21 kts 12°
2026-05-06 21:38 53.34869 -2.27857 226 ft 0 kts 327°
2026-05-06 21:38 53.34878 -2.27865 227 ft 2 kts 330°
2026-05-06 21:39 53.34885 -2.27872 229 ft 2 kts 330°
2026-05-06 21:39 53.34906 -2.27897 228 ft 6 kts 323°
2026-05-06 21:39 53.34950 -2.27955 230 ft 10 kts 320°
2026-05-06 21:39 53.35016 -2.28045 233 ft 14 kts 321°
2026-05-06 21:40 53.35112 -2.28171 232 ft 21 kts 325°
2026-05-06 21:40 53.35276 -2.28186 232 ft 25 kts
2026-05-06 21:40 53.35447 -2.28151 238 ft 26 kts 11°